DW6632 Weather Reports


Display with metric or nautical units.
time (UTC)temp
F
wind
direction
speed
MPH
gust
MPH
rain 1hr
in
rain 24hr
in
rain mn
in
humidity
%
barometer
mb
20230608014705 66 265 0.0 1.0 0.00 0.13 0.00 90 1013.1
20230608014206 66 265 0.0 1.0 0.00 0.13 0.00 90 1013.2
20230608013205 66 265 0.0 1.0 0.00 0.13 0.00 89 1013.3
20230608011705 66 265 0.0 1.0 0.00 0.13 0.00 89 1013.4
20230608011205 66 265 0.0 1.0 0.00 0.13 0.00 89 1013.3
20230608010705 66 265 0.0 1.0 0.00 0.13 0.00 89 1013.3
20230608010206 66 265 0.0 1.0 0.00 0.13 0.00 89 1013.4
20230608004705 66 265 0.0 0.0 0.00 0.13 0.00 89 1013.6
20230608004205 66 265 0.0 0.0 0.00 0.13 0.00 89 1013.6
20230608003705 66 265 0.0 0.0 0.00 0.13 0.00 89 1013.7
20230608003205 66 265 0.0 0.0 0.00 0.13 0.00 89 1013.7
20230608001706 66 265 0.0 0.0 0.00 0.13 0.00 90 1014.0
20230608001205 66 265 0.0 0.0 0.00 0.13 0.00 90 1013.8
20230608000705 66 265 0.0 0.0 0.00 0.13 0.00 90 1013.8
20230608000205 66 265 0.0 0.0 0.00 0.13 0.00 90 1013.9
20230607234705 66 265 0.0 0.0 0.00 0.13 0.00 90 1014.2
20230607234205 66 265 0.0 0.0 0.00 0.13 0.00 90 1014.2
20230607233705 66 265 0.0 0.0 0.00 0.13 0.00 90 1014.3
20230607233205 66 265 0.0 0.0 0.00 0.13 0.00 90 1014.4
20230607231706 66 265 0.0 0.0 0.00 0.13 0.00 90 1014.7
20230607231205 66 265 0.0 0.0 0.00 0.13 0.00 89 1014.6
20230607230705 66 265 0.0 0.0 0.00 0.13 0.00 89 1014.7
20230607230206 66 265 0.0 1.0 0.00 0.13 0.00 89 1014.8
20230607224705 66 265 0.0 0.0 0.00 0.13 0.00 89 1014.7
20230607224205 66 265 0.0 0.0 0.00 0.13 0.00 89 1014.7
20230607223705 66 265 0.0 0.0 0.00 0.13 0.00 89 1014.8
20230607223205 66 265 0.0 0.0 0.00 0.13 0.00 89 1014.9
20230607221206 66 265 1.0 2.0 0.00 0.13 0.00 88 1015.0
20230607220705 66 265 0.0 1.0 0.00 0.13 0.00 88 1015.0
20230607214706 66 278 0.0 0.0 0.00 0.13 0.13 88 1015.0
20230607214205 66 278 0.0 0.0 0.00 0.13 0.13 88 1015.1
20230607213705 66 278 0.0 0.0 0.00 0.13 0.13 88 1015.0
20230607213205 66 278 0.0 1.0 0.00 0.13 0.13 88 1015.0
20230607211705 66 278 0.0 0.0 0.00 0.13 0.13 88 1015.0
20230607211205 66 278 0.0 0.0 0.00 0.13 0.13 88 1015.0
20230607210704 66 278 0.0 0.0 0.00 0.13 0.13 88 1015.1
20230607210205 66 278 0.0 0.0 0.00 0.13 0.13 87 1015.1
20230607204705 66 278 0.0 0.0 0.00 0.13 0.13 87 1015.0
20230607204205 66 278 0.0 0.0 0.00 0.13 0.13 87 1014.9
20230607203705 66 278 0.0 0.0 0.00 0.13 0.13 87 1014.8
20230607203205 66 278 0.0 2.0 0.00 0.13 0.13 86 1014.8
20230607201707 67 278 0.0 2.0 0.00 0.13 0.13 85 1014.8
20230607201205 67 278 0.0 2.0 0.00 0.13 0.13 84 1014.8
20230607200705 67 278 1.0 2.0 0.00 0.13 0.13 85 1014.7
20230607200204 66 278 0.0 3.0 0.00 0.13 0.13 85 1014.5
20230607194705 66 278 2.0 3.0 0.00 0.13 0.13 85 1014.6
20230607194205 66 281 1.0 3.0 0.00 0.13 0.13 86 1014.5
20230607193708 66 252 1.0 2.0 0.00 0.13 0.13 86 1014.5
20230607193205 66 252 0.0 3.0 0.00 0.13 0.13 86 1014.4
20230607191705 66 247 1.0 2.0 0.00 0.13 0.13 86 1014.4
20230607191205 66 247 0.0 2.0 0.00 0.13 0.13 86 1014.4
20230607190705 66 256 1.0 3.0 0.00 0.13 0.13 86 1014.5
20230607190205 66 261 0.0 3.0 0.00 0.13 0.13 86 1014.4
20230607184705 66 271 0.0 1.0 0.00 0.13 0.13 86 1014.3
20230607184205 66 271 1.0 2.0 0.00 0.13 0.13 86 1014.3
20230607183705 66 274 1.0 3.0 0.00 0.13 0.13 85 1014.3
20230607183205 66 273 2.0 3.0 0.00 0.13 0.13 85 1014.4
20230607181705 66 287 2.0 3.0 0.00 0.13 0.13 85 1014.4
20230607181204 66 288 1.0 3.0 0.00 0.13 0.13 85 1014.4
20230607180205 66 255 1.0 3.0 0.00 0.13 0.13 86 1014.3
20230607174205 66 289 2.0 3.0 0.00 0.13 0.13 85 1014.4
20230607173704 66 295 0.0 0.0 0.00 0.13 0.13 86 1014.3
20230607173205 66 295 0.0 3.0 0.01 0.13 0.13 86 1014.2
20230607171705 66 295 0.0 2.0 0.01 0.13 0.13 86 1014.1
20230607171205 66 296 1.0 3.0 0.01 0.13 0.13 86 1014.3
20230607170205 65 289 3.0 6.0 0.01 0.13 0.13 86 1014.5
20230607164704 66 278 2.0 3.0 0.02 0.13 0.13 86 1014.5
20230607164205 66 284 2.0 3.0 0.02 0.13 0.13 86 1014.6
20230607163705 66 278 2.0 6.0 0.04 0.13 0.13 86 1014.6
20230607163205 66 280 2.0 6.0 0.03 0.12 0.12 86 1014.7
20230607161704 67 4 0.0 3.0 0.04 0.12 0.12 87 1014.7
20230607160705 67 36 0.0 0.0 0.04 0.12 0.12 86 1014.7
20230607160205 67 38 0.0 0.0 0.04 0.12 0.12 86 1014.8
20230607154704 67 39 0.0 0.0 0.02 0.10 0.10 85 1014.8
20230607154205 67 39 0.0 0.0 0.02 0.10 0.10 85 1014.7
20230607153705 67 39 0.0 0.0 0.01 0.09 0.09 84 1014.8
20230607153205 67 40 0.0 0.0 0.01 0.09 0.09 83 1014.9
20230607151704 67 40 0.0 2.0 0.00 0.08 0.08 80 1014.8
20230607151204 67 40 1.0 3.0 0.00 0.08 0.08 80 1014.7
20230607150705 67 10 2.0 3.0 0.00 0.08 0.08 80 1014.8
20230607150204 67 14 2.0 3.0 0.00 0.08 0.08 82 1014.7
20230607144705 68 16 2.0 7.0 0.00 0.08 0.08 84 1014.8
20230607144204 68 15 2.0 3.0 0.00 0.08 0.08 83 1014.8
20230607143705 68 7 2.0 3.0 0.00 0.08 0.08 82 1014.9
20230607143205 68 350 1.0 3.0 0.00 0.08 0.08 82 1014.9
20230607141705 68 5 0.0 0.0 0.00 0.08 0.08 81 1014.9
20230607141204 68 5 0.0 0.0 0.00 0.08 0.08 82 1014.9
20230607140705 68 5 0.0 0.0 0.01 0.08 0.08 83 1015.0
20230607140205 68 5 0.0 3.0 0.01 0.08 0.08 83 1015.1
20230607134705 68 5 1.0 3.0 0.01 0.08 0.08 84 1015.0
20230607134205 68 5 1.0 3.0 0.01 0.08 0.08 84 1014.9
20230607133705 68 5 0.0 0.0 0.02 0.08 0.08 84 1014.9
20230607133205 68 5 0.0 3.0 0.02 0.08 0.08 84 1014.9
20230607131705 68 13 1.0 3.0 0.04 0.08 0.08 85 1014.9
20230607130704 68 13 0.0 1.0 0.05 0.07 0.07 86 1014.7
20230607124705 68 22 2.0 3.0 0.06 0.07 0.07 85 1015.0
20230607124205 69 4 2.0 3.0 0.06 0.07 0.07 87 1015.1
20230607123705 69 5 1.0 3.0 0.06 0.06 0.06 86 1015.1
20230607123205 69 5 1.0 3.0 0.06 0.06 0.06 86 1015.2
20230607121704 70 348 0.0 3.0 0.04 0.04 0.04 84 1015.2
20230607121205 70 357 2.0 3.0 0.02 0.02 0.02 84 1015.2
20230607120205 70 296 3.0 7.0 0.02 0.02 0.02 82 1015.2
20230607114707 71 323 2.0 3.0 0.01 0.01 0.01 82 1015.2
20230607113705 71 9 2.0 3.0 0.00 0.00 0.00 79 1015.2
20230607113209 71 306 2.0 7.0 0.00 0.00 0.00 80 1015.2
20230607111707 71 287 4.0 6.0 0.00 0.00 0.00 77 1015.2
20230607111206 71 15 0.0 3.0 0.00 0.00 0.00 74 1015.1
20230607110706 72 5 3.0 5.0 0.00 0.00 0.00 75 1015.0
20230607110205 72 309 2.0 5.0 0.00 0.00 0.00 73 1015.0
20230607104706 72 54 2.0 3.0 0.00 0.00 0.00 74 1014.6
20230607104208 72 309 1.0 3.0 0.00 0.00 0.00 75 1014.5
20230607103704 72 298 2.0 5.0 0.00 0.00 0.00 75 1014.5
20230607103208 72 42 2.0 5.0 0.00 0.00 0.00 76 1014.5
20230607101707 71 10 1.0 5.0 0.00 0.00 0.00 75 1014.5
20230607101205 71 16 3.0 5.0 0.00 0.00 0.00 76 1014.5
20230607100706 71 9 1.0 5.0 0.00 0.00 0.00 76 1014.4
20230607100207 71 354 3.0 8.0 0.00 0.00 0.00 77 1014.3
20230607094707 71 274 0.0 2.0 0.00 0.00 0.00 78 1014.6
20230607094208 71 273 1.0 3.0 0.00 0.00 0.00 77 1014.7
20230607093705 71 271 3.0 6.0 0.00 0.00 0.00 76 1014.6
20230607093206 71 300 1.0 3.0 0.00 0.00 0.00 77 1014.6
20230607091708 71 292 2.0 3.0 0.00 0.00 0.00 77 1014.5
20230607091205 71 35 1.0 3.0 0.00 0.00 0.00 78 1014.4
20230607090706 71 40 1.0 2.0 0.00 0.00 0.00 79 1014.4
20230607090205 71 40 1.0 3.0 0.00 0.00 0.00 79 1014.4
20230607084707 70 50 2.0 3.0 0.00 0.00 0.00 81 1014.4
20230607084206 69 355 1.0 2.0 0.00 0.00 0.00 82 1014.5
20230607083705 69 10 1.0 3.0 0.00 0.00 0.00 81 1014.5
20230607083206 69 351 2.0 3.0 0.00 0.00 0.00 82 1014.5
20230607081706 69 320 0.0 2.0 0.00 0.00 0.00 83 1014.6
20230607081206 69 320 0.0 2.0 0.00 0.00 0.00 83 1014.6
20230607080705 69 320 2.0 3.0 0.00 0.00 0.00 83 1014.6
20230607080207 69 343 2.0 3.0 0.00 0.00 0.00 83 1014.6
20230607074706 68 314 2.0 3.0 0.00 0.00 0.00 84 1014.6
20230607074206 68 316 2.0 3.0 0.00 0.00 0.00 85 1014.5
20230607073708 68 315 2.0 5.0 0.00 0.00 0.00 85 1014.4
20230607073206 68 0 1.0 3.0 0.00 0.00 0.00 85 1014.3
20230607071706 68 355 1.0 2.0 0.00 0.00 0.00 85 1014.2
20230607071206 68 355 1.0 3.0 0.00 0.00 0.00 85 1014.2
20230607070207 68 32 1.0 3.0 0.00 0.00 0.00 86 1014.0
20230607064706 68 15 2.0 3.0 0.00 0.00 0.00 85 1013.8
20230607064206 68 21 2.0 3.0 0.00 0.00 0.00 85 1013.7
20230607063706 68 359 2.0 3.0 0.00 0.00 0.00 84 1013.7
20230607063208 68 14 1.0 3.0 0.00 0.00 0.00 83 1013.6
20230607061707 68 355 2.0 3.0 0.00 0.00 0.00 82 1013.8
20230607061206 68 355 2.0 3.0 0.00 0.00 0.00 81 1013.8
20230607060707 68 310 1.0 3.0 0.00 0.00 0.00 81 1013.8
20230607054705 68 302 2.0 3.0 0.00 0.00 0.00 81 1013.9
20230607054206 68 304 1.0 3.0 0.00 0.00 0.00 82 1013.9
20230607053707 68 304 1.0 2.0 0.00 0.00 0.00 82 1013.9
20230607053206 68 303 2.0 5.0 0.00 0.00 0.00 82 1013.8
20230607051707 68 298 2.0 3.0 0.00 0.00 0.00 81 1013.8
20230607051207 68 284 2.0 3.0 0.00 0.00 0.00 81 1013.8
20230607050706 68 269 2.0 3.0 0.00 0.00 0.00 81 1013.8
20230607050216 68 292 2.0 3.0 0.00 0.00 0.00 81 1013.7
20230607044204 68 273 1.0 3.0 0.00 0.00 0.00 81 1013.7
20230607040704 68 263 2.0 3.0 0.00 0.00 0.00 82 1013.7
20230607040208 68 279 2.0 3.0 0.00 0.00 0.00 82 1013.6
20230607034706 68 265 1.0 3.0 0.00 0.00 0.00 83 1013.7
20230607034205 68 273 1.0 3.0 0.00 0.00 0.00 83 1013.6
20230607033706 68 265 2.0 5.0 0.00 0.00 0.00 82 1013.6
20230607033207 68 262 2.0 5.0 0.00 0.00 0.00 83 1013.8
20230607031706 68 263 2.0 6.0 0.00 0.00 0.00 83 1013.8
20230607031207 68 259 2.0 5.0 0.00 0.00 0.00 83 1013.8
20230607030706 68 275 3.0 6.0 0.00 0.00 0.00 83 1013.9
20230607030207 68 260 3.0 6.0 0.00 0.00 0.00 83 1014.0
20230607024707 68 235 2.0 3.0 0.00 0.00 0.00 83 1014.0
20230607024207 68 283 2.0 3.0 0.00 0.00 0.00 83 1013.9
20230607023706 68 317 2.0 7.0 0.00 0.00 0.00 83 1013.9
20230607023208 68 287 3.0 6.0 0.00 0.00 0.00 83 1014.0
20230607021706 68 253 2.0 5.0 0.00 0.00 0.00 83 1013.9
20230607021206 68 290 1.0 3.0 0.00 0.00 0.00 83 1014.0
20230607020707 68 280 2.0 3.0 0.00 0.00 0.00 83 1014.0